Location: ??????????
(54.4061°N, 22.6114°E)
Time: 19:56:37
(UTC+00:00)

YAOGAN 6 - Pass Details

Date: 23 October 2019
Orbit: 465 x 506 km, 97.0° (Epoch: 19 November)

Event Time Altitude Azimuth Distance (km) Brightness Sun altitude
Rises 16:38:37 0° 169° (S) 2,571 6.1 -12.9°
Reaches altitude 10° 16:40:42 10° 171° (S) 1,687 5.2 -13.2°
Maximum altitude 16:44:20 76° 258° (WSW) 512 2.8 -13.7°
Drops below altitude 10° 16:47:57 10° 344° (NNW) 1,679 5.5 -14.2°
Sets 16:50:01 0° 346° (NNW) 2,557 6.4 -14.5°
